Tracking 19827 objects as of 21-Aug-2019
HD Live streaming from Space Station
objects crossing your sky now

FENGYUN 1C DEB

Track FENGYUN 1C DEB now!
10-day predictions


NORAD ID: 30441
Int'l Code: 1999-025AFC
Perigee: 850.3 km
Apogee: 1,127.4 km
Inclination: 99.0 °
Period: 104.7 minutes
Semi major axis: 7359 km
RCS: 0.038 m2 (small)
Launch date: May 10, 1999
Source: People's Republic of China (PRC)
Launch site: Taiyaun Space Center, China (TSC)

Note: This is SATELLITE DEBRIS
aabbcc
Your satellite tracking list
Your tracking list is empty




NASA's NSSDC Master Catalog

Two Line Element Set (TLE):
1 30441U 99025AFC 19232.43769068  .00000101  00000-0  13220-3 0  9990
2 30441  98.9653  37.4604 0188199 245.7852 112.3530 13.74990407631646
Source of the keplerian elements: AFSPC